Flag for Germany Weather past 2 weeks in Winsen (Luhe), Lower Saxony, Germany

Now
75 °F

Passing clouds.


Feels Like: 77 °F
Forecast: 56 / 72 °F
Wind: 9 mph from East

Location: Hamburg-Finkenwerder

Current Time: Sep 16, 2014 at 4:05:16 PM

Latest Report: Sep 16, 2014 at 3:20 PM


Visibility: N/A

Pressure: 30.04 "Hg

Humidity: 61%

Dew point: 61 °F

Location of Winsen (Luhe)Location

Historic Weather in Winsen (Luhe) — Graph

°F

Winsen (Luhe) temperature yesterday

Maximum temperature yesterday: 75 °F (at 2:50 PM)
Minimum temperature yesterday: 61 °F (at 5:20 AM)
Average temperature yesterday: 68 °F

Past Weeks' High & Low Weather Summary

 TemperatureHumidityPressure
High79 °F (Sep 5, 3:50 PM)100% (Sep 1, 5:50 PM)30.33 "Hg (Sep 1, 5:50 PM)
Low54 °F (Sep 3, 5:50 AM)41% (Sep 4, 4:50 PM)29.89 "Hg (Sep 6, 9:20 AM)
Average65 °F75%30.10 "Hg
* Reported Sep 1 2:20 PM — Sep 16 2:50 PM, Winsen (Luhe), Weather by CustomWeather, © 2014

Note: Actual official high and low records may vary slightly from our data, if they occured in-between our weather recording intervals... More about our weather records

Advertising

Winsen (Luhe) weather history for previous 24 hours

 ConditionsComfort  
Time TempWeatherWind HumidityBarometerVisibility
2:50 PM
Sep 16
73 °FPassing clouds.12 mph65%30.04 "HgN/A
2:20 PM73 °FPassing clouds.12 mph65%30.07 "HgN/A
1:50 PM73 °FPassing clouds.13 mph61%30.07 "HgN/A
1:20 PM72 °FPassing clouds.12 mph65%30.07 "HgN/A
12:50 PM72 °FPassing clouds.9 mph65%30.07 "HgN/A
12:20 PM70 °FPassing clouds.10 mph69%30.07 "HgN/A
11:50 AM70 °FPassing clouds.10 mph69%30.07 "HgN/A
11:20 AM68 °FSunny.12 mph69%30.07 "Hg10 mi
10:50 AM66 °FSunny.10 mph73%30.09 "Hg10 mi
10:20 AM64 °FSunny.10 mph78%30.09 "Hg10 mi
9:50 AM64 °FSunny.8 mph78%30.09 "Hg10 mi
9:20 AM63 °FSunny.7 mph83%30.09 "Hg10 mi
8:50 AM63 °FSunny.8 mph83%30.09 "Hg10 mi
8:20 AM61 °FSunny.7 mph83%30.09 "Hg10 mi
7:50 AM61 °FClear.6 mph83%30.09 "Hg10 mi
7:20 AM61 °FClear.6 mph83%30.09 "Hg10 mi
6:50 AM61 °FClear.7 mph83%30.09 "Hg10 mi
6:20 AM61 °FPassing clouds.6 mph88%30.09 "HgN/A
5:50 AM61 °FPassing clouds.8 mph88%30.07 "HgN/A
7:20 PM
Sep 15
73 °FPassing clouds.9 mph57%30.04 "HgN/A
6:50 PM73 °FPassing clouds.8 mph57%30.04 "HgN/A
6:20 PM75 °FPassing clouds.8 mph54%30.04 "HgN/A
5:50 PM75 °FPassing clouds.12 mph54%30.04 "HgN/A
5:20 PM75 °FPassing clouds.8 mph54%30.07 "HgN/A
4:20 PM75 °FPassing clouds.9 mph57%30.07 "HgN/A
Weather by CustomWeather, © 2014

See weather overviewHow to use our weather pages